EHI
0 0 1 1 1 0 0 0 0 0 0 0 1 1 3 7 9 8 10 16 22 21 17 17 21 22 19 14 10 5 1 0 0 0 0 0 0 0 0 0 0 0 0 0 0 0 0 0 0
0 0 0 0 0 0 0 0 0 0 0 1 1 2 3 5 8 8 11 17 22 20 14 14 20 22 20 16 11 7 3 0 0 0 0 0 0 0 0 0 0 0 0 0 0 0 0 0 0
0 0 0 0 0 0 0 0 0 0 0 1 2 2 2 3 6 9 12 16 20 19 14 15 20 23 23 18 12 7 4 1 0 0 0 0 0 0 0 0 0 0 0 0 0 0 0 0 0
0 0 0 0 0 0 0 0 0 0 0 0 1 2 2 2 6 11 13 14 18 19 18 17 20 23 23 19 13 8 4 1 0 0 0 0 0 0 0 0 0 0 0 0 0 0 0 0 0
0 0 0 0 0 0 0 0 0 0 0 0 1 2 3 4 8 14 15 16 18 20 18 17 18 20 20 17 13 8 4 2 0 0 0 0 0 0 0 0 0 0 0 0 0 0 0 0 0
0 0 0 0 0 0 0 0 0 0 0 0 1 2 3 5 11 16 16 18 20 19 16 14 15 16 15 13 10 7 4 2 1 0 0 0 0 0 0 0 0 0 0 0 0 0 0 0 0
0 0 0 0 0 0 0 0 0 0 1 1 1 2 2 5 11 16 17 18 19 17 15 13 11 10 10 8 6 5 3 2 1 0 1 0 0 0 0 0 0 0 0 0 0 0 0 0 0
0 0 0 0 0 0 0 0 0 0 1 2 2 2 3 6 10 14 15 16 17 16 15 11 6 4 4 4 3 2 1 1 0 0 0 0 0 0 0 0 0 0 0 0 0 0 0 0 0
0 0 0 0 0 0 0 0 0 0 1 2 3 3 5 7 9 12 13 14 15 16 14 9 4 1 1 2 2 1 0 0 0 0 0 0 0 0 0 0 0 0 0 0 0 0 0 0 0
0 0 0 0 0 0 0 0 0 0 0 1 3 4 6 9 10 10 11 11 12 13 11 9 5 2 1 2 2 2 1 0 0 0 0 0 0 0 0 0 0 0 0 0 0 0 0 0 0
0 0 0 0 0 0 0 0 0 0 0 0 1 3 5 8 9 8 7 7 9 9 9 8 6 3 1 1 2 2 2 1 0 0 0 0 0 0 0 0 0 0 0 0 0 0 0 0 0
0 0 0 0 0 0 0 0 0 0 0 0 0 1 3 5 6 5 5 6 7 6 6 5 4 2 1 1 1 1 1 1 0 0 0 0 0 0 0 0 0 0 0 0 0 0 0 0 0
0 0 0 0 0 0 0 0 0 0 0 0 0 0 1 2 3 3 4 6 6 5 4 3 2 1 1 1 1 0 0 0 0 0 0 0 0 0 0 0 0 0 0 0 0 0 0 0 0
0 0 0 0 0 0 0 0 0 0 0 0 0 0 0 0 1 1 2 4 4 3 3 2 2 1 0 0 1 0 0 0 0 0 0 0 0 0 0 0 0 0 0 0 0 0 0 0 0
0 0 0 0 0 0 0 0 0 0 0 0 0 0 0 0 0 0 0 1 1 1 1 1 1 1 0 0 0 0 0 0 0 0 0 0 0 0 0 0 0 0 0 0 0 0 0 0 0
0 0 0 0 0 0 0 0 0 0 0 0 0 0 0 0 0 0 0 0 0 0 0 0 0 0 0 0 0 0 0 0 0 0 0 0 0 0 0 0 0 0 0 0 0 0 0 0 0
0 0 0 0 0 0 0 0 0 0 0 0 0 0 0 0 0 0 0 0 0 0 0 0 0 0 0 0 0 0 0 0 0 0 0 0 0 0 0 0 0 0 0 0 0 0 0 0 0
0 0 0 0 0 0 0 0 0 0 0 0 0 0 0 0 0 0 0 0 0 0 0 0 0 0 0 0 0 0 0 0 0 0 0 0 0 0 0 0 0 0 0 0 0 0 0 0 0
0 0 0 0 0 0 0 0 0 0 0 0 0 0 0 0 0 0 0 0 0 0 0 0 0 0 0 0 0 0 0 0 0 0 0 0 0 0 0 0 0 0 0 0 0 0 0 0 0
0 0 0 0 0 0 0 0 0 0 0 0 0 0 0 0 0 0 0 0 0 0 0 0 0 0 0 0 0 0 0 0 0 0 0 0 0 0 0 0 0 0 0 0 0 0 0 0 0
0 0 0 0 0 0 0 0 0 0 0 0 0 0 0 0 0 0 0 0 0 0 0 0 0 0 0 0 0 0 0 0 0 0 0 0 0 0 0 0 0 0 0 0 0 0 0 0 0
0 0 0 0 0 0 0 0 0 0 0 0 0 0 0 0 0 0 0 0 0 0 0 0 0 0 0 0 0 0 0 0 0 0 0 0 0 0 0 0 0 0 0 0 0 0 0 0 0
0 0 0 0 0 0 0 0 0 0 0 0 0 0 0 0 0 0 0 0 0 0 0 0 0 0 0 0 0 0 0 0 0 0 0 0 0 0 0 0 0 0 0 0 0 0 0 0 0
0 0 0 0 0 0 0 0 0 0 0 0 0 0 0 0 0 0 0 0 0 0 0 0 0 0 0 0 0 0 0 0 0 0 0 0 0 0 0 0 0 0 0 0 0 0 0 0 0
0 0 0 0 0 0 0 0 0 0 0 0 0 0 0 0 0 0 0 0 0 0 0 0 0 0 0 0 0 0 0 0 0 0 0 0 0 0 0 0 0 0 0 0 0 0 0 0 0
0 0 0 0 0 0 0 0 0 0 0 0 0 0 0 0 0 0 0 0 0 0 0 0 0 0 0 0 0 0 0 0 0 0 0 0 0 0 0 0 0 0 0 0 0 0 0 0 0
0 0 0 0 0 0 0 0 0 0 0 0 0 0 0 0 0 0 0 0 0 0 0 0 0 0 0 0 0 0 0 0 0 0 0 0 0 0 0 0 0 0 0 0 0 0 0 0 0
0 0 0 0 0 0 0 0 0 0 0 0 0 0 0 0 0 0 0 0 0 0 0 0 0 0 0 0 0 0 0 0 0 0 0 0 0 0 0 0 0 0 0 0 0 0 0 0 0
0 0 0 0 0 0 0 0 0 0 0 0 0 0 0 0 0 0 0 0 0 0 0 0 0 0 0 0 0 0 0 0 0 0 0 0 0 0 0 0 0 0 0 0 0 0 0 0 0
0 0 0 0 0 0 0 0 0 0 0 0 0 0 0 0 0 0 0 0 0 0 0 0 0 0 0 0 0 0 0 0 0 0 0 0 0 0 0 0 0 0 0 0 0 0 0 0 0
Wind_Speed
9 8 5 2 3 5 9 7 5 3 1 1 4 4 5 6 6 9 3 5 7 8 9 9 9 8 8 8 8 7 6 6 5 5 5 5 5 5 4 4 4 4 5 4 5 5 5 5 5
7 6 3 3 4 7 7 7 4 1 2 3 3 3 6 7 8 7 4 5 6 8 8 8 9 8 8 7 7 7 6 5 5 5 5 4 5 4 4 4 3 3 4 4 4 4 4 5 5
9 7 3 3 6 8 6 6 4 3 3 3 3 5 5 6 6 5 4 4 6 8 7 9 9 8 8 7 7 6 5 5 4 4 3 3 4 3 3 3 3 3 3 4 4 4 4 4 4
4 3 3 5 8 7 5 3 6 6 3 3 5 5 5 6 4 4 3 4 6 7 8 8 9 8 7 6 6 5 5 4 3 3 2 3 3 3 3 2 2 3 3 3 3 4 4 4 4
3 3 5 6 8 6 3 1 4 6 5 4 5 5 5 5 6 5 4 4 6 6 7 7 9 8 7 6 5 4 4 3 3 2 2 2 2 2 2 2 2 3 3 3 3 4 4 4 4
3 3 5 7 8 5 2 1 3 4 4 4 5 5 5 5 5 4 4 5 6 6 7 6 8 7 7 6 4 3 3 2 2 1 2 2 2 2 2 3 3 3 4 3 4 4 5 5 5
3 3 5 6 6 4 3 1 2 4 4 3 3 5 6 6 4 3 5 6 6 6 5 4 4 5 6 5 4 3 2 1 1 1 1 1 2 3 3 4 4 4 4 4 4 5 5 5 6
2 2 5 6 5 3 3 1 1 3 3 4 3 4 5 5 4 4 5 5 5 5 5 4 3 3 2 3 3 2 2 1 1 2 2 3 3 4 5 5 4 4 5 5 5 6 6 6 6
3 2 3 2 3 4 4 2 2 4 4 4 5 6 7 7 5 4 4 4 4 5 4 4 4 3 2 1 2 1 2 2 2 2 3 3 3 3 3 5 4 5 5 6 6 7 7 6 7
2 2 0 2 1 4 3 2 2 3 5 4 6 8 7 6 5 4 4 4 4 4 4 4 4 3 3 2 1 0 0 1 1 1 2 2 2 1 2 3 5 6 7 7 7 8 7 6 4
1 0 2 4 5 3 2 1 1 3 3 4 7 8 6 5 4 4 4 4 4 4 4 4 3 3 3 2 2 1 1 1 1 1 1 1 1 1 1 1 2 3 5 4 5 5 4 5 4
1 3 3 3 3 3 2 1 0 2 3 6 7 7 6 5 4 4 4 4 4 4 4 4 4 3 3 3 2 2 2 1 1 1 2 1 1 1 1 1 1 2 2 3 3 3 5 6 6
3 3 4 3 3 2 1 1 2 3 3 5 7 6 5 5 4 4 4 4 4 4 4 4 4 4 3 2 2 2 2 2 2 2 2 2 1 1 1 1 1 2 2 2 2 3 4 5 5
4 5 4 3 2 2 2 1 1 2 3 5 5 5 5 5 5 4 4 4 3 4 3 3 3 3 3 2 2 2 2 2 2 2 2 2 1 2 1 2 2 2 2 2 2 4 4 4 3
5 6 4 2 2 1 1 1 3 4 4 5 5 5 5 5 4 4 4 3 3 3 3 3 3 3 3 3 2 2 1 2 2 2 2 2 2 2 2 2 2 2 2 2 2 3 3 3 3
5 3 3 2 2 2 2 2 4 5 5 4 4 4 4 5 4 4 4 4 3 2 3 3 3 3 3 3 3 2 2 1 1 2 2 3 3 3 2 2 2 2 2 2 2 2 2 3 3
3 2 3 3 1 1 2 2 4 5 5 4 4 4 4 4 4 4 3 3 3 2 2 2 2 3 3 3 2 2 2 2 2 2 2 3 3 3 3 2 2 3 2 2 2 2 2 3 3
2 2 3 3 1 1 2 2 3 5 5 5 4 4 5 4 5 5 4 3 3 2 1 2 2 3 3 2 2 2 2 2 2 2 2 3 3 3 3 3 3 3 2 2 2 3 2 2 2
1 2 3 3 1 2 2 3 4 5 5 5 4 4 4 4 5 5 4 3 3 2 1 1 2 2 2 2 2 2 2 2 2 2 3 3 3 3 3 3 3 3 2 3 3 2 3 2 2
1 3 3 2 2 2 2 4 5 6 7 6 5 4 4 4 5 5 4 3 2 2 1 1 2 2 2 1 1 1 1 1 2 2 3 3 3 3 3 3 3 3 3 3 3 2 2 2 1
4 3 3 2 2 2 3 5 6 6 6 5 5 3 3 4 5 5 5 4 3 2 1 1 1 2 2 2 1 2 1 2 2 2 2 2 3 3 3 3 3 3 3 3 3 2 2 2 2
2 4 3 1 1 1 1 3 4 5 6 6 5 4 4 3 3 4 4 3 2 2 2 0 1 1 1 1 1 2 2 2 2 2 2 2 3 3 3 3 3 3 2 3 3 3 2 2 2
2 2 2 2 1 2 3 3 6 3 5 5 5 4 3 3 3 3 4 3 3 3 2 1 0 1 1 1 1 2 2 2 2 2 2 2 2 3 3 3 3 3 2 3 3 3 2 2 2
1 2 2 1 0 2 4 3 5 2 3 3 4 3 3 3 3 3 3 3 3 3 2 1 1 1 1 1 1 2 2 2 3 3 2 2 2 2 2 3 3 3 2 3 3 3 2 2 2
2 1 1 1 1 3 2 2 6 1 3 3 3 3 3 3 3 3 3 2 2 3 2 2 1 1 1 1 2 2 2 2 3 2 2 2 2 2 3 3 3 3 2 3 3 2 2 2 2
2 2 1 1 2 1 0 4 4 3 5 4 3 3 2 2 3 3 3 3 3 3 3 3 3 2 2 2 2 2 2 2 2 2 2 2 2 2 3 3 3 3 3 3 2 2 2 2 2
2 1 1 1 2 3 4 4 1 3 4 3 3 2 2 2 2 2 3 3 3 3 3 3 3 3 3 3 2 2 2 2 2 2 2 2 2 2 3 3 3 3 2 2 2 1 1 1 1
2 3 1 0 1 3 4 3 3 3 3 2 2 2 2 2 2 2 2 3 3 3 3 3 3 3 3 3 3 2 2 2 2 2 2 3 3 2 3 3 3 3 2 2 1 1 1 1 1
3 2 2 2 1 1 4 4 1 4 3 2 1 1 1 2 2 2 2 3 3 3 3 3 3 3 3 3 3 3 3 3 2 2 2 2 2 3 3 3 3 3 2 2 1 2 2 1 2
1 2 2 1 3 3 3 6 2 5 4 2 0 0 1 1 2 3 3 3 3 3 3 4 4 4 3 3 3 3 3 3 3 3 3 2 3 3 3 3 3 2 2 1 1 2 2 2 2
Wind_Direction
277 262 248 244 222 228 234 231 230 213 203 24 36 29 42 38 47 105 132 79 99 107 114 119 113 117 117 114 115 115 117 119 123 125 124 122 125 129 127 126 124 126 123 116 113 109 111 111 109
267 246 236 233 225 221 224 216 212 172 91 57 45 49 64 70 69 90 79 70 94 104 111 113 112 112 112 114 115 117 118 116 119 127 130 129 129 130 130 127 124 125 128 125 121 117 119 123 125
260 237 222 221 228 227 218 185 169 118 95 88 65 33 48 59 65 72 67 80 87 96 101 102 110 110 109 110 111 114 119 120 118 122 131 139 142 141 137 132 123 119 124 136 137 134 134 135 138
234 215 235 232 226 236 247 181 141 127 109 95 97 78 68 37 44 71 72 76 88 90 96 101 100 107 106 107 111 113 116 122 125 130 134 146 153 160 159 151 135 128 131 146 156 159 160 160 160
229 218 217 223 228 226 251 76 126 135 142 137 111 99 84 67 65 66 67 69 83 88 95 104 97 97 99 101 104 108 116 126 132 141 152 170 183 184 178 169 158 153 157 169 178 184 182 184 187
217 225 217 211 212 212 182 112 134 138 137 132 120 113 97 94 71 60 66 66 75 87 97 104 99 97 90 85 91 97 108 122 147 159 177 190 197 201 199 191 185 185 188 192 199 202 202 203 206
233 225 228 209 196 200 164 188 181 139 133 127 113 109 122 101 78 70 69 67 65 74 85 95 105 106 98 89 80 80 97 108 137 186 209 226 222 217 215 212 209 208 209 210 215 218 217 217 220
277 265 238 220 192 179 134 186 43 110 99 61 59 115 133 118 107 87 77 72 69 65 69 72 81 83 99 109 101 95 113 135 195 221 222 226 230 225 220 219 219 221 220 221 226 227 227 226 227
268 248 233 226 184 138 121 117 48 58 81 67 50 73 102 119 119 105 94 81 72 66 58 57 53 50 41 58 102 145 180 192 213 218 217 222 227 222 217 214 210 220 223 228 232 233 230 229 230
244 236 227 333 24 104 112 104 127 114 116 99 88 87 104 114 118 111 99 85 74 64 53 47 48 39 25 12 37 297 220 211 240 224 204 222 241 240 245 212 212 221 226 230 234 234 231 230 228
268 114 82 25 36 90 112 121 169 146 146 132 128 128 123 117 112 101 90 84 76 68 53 37 37 37 25 8 1 352 339 315 284 290 261 267 264 253 247 210 210 222 227 227 230 229 229 230 226
105 58 63 50 27 66 78 95 159 62 89 105 106 120 126 126 119 103 90 80 72 67 58 37 25 27 24 17 353 343 337 339 328 334 333 328 321 282 257 236 230 228 231 228 218 225 233 239 236
111 91 81 82 75 67 92 73 55 62 76 103 117 124 126 122 112 102 96 87 77 66 56 48 27 18 13 13 340 351 342 341 328 333 322 328 318 299 286 261 245 247 249 243 232 238 241 242 247
123 115 108 103 105 122 122 123 138 135 127 128 133 131 126 116 112 108 100 89 77 67 52 46 34 16 4 6 354 343 339 333 324 327 320 317 301 298 298 289 272 266 261 257 251 251 252 248 249
142 128 119 128 142 128 132 188 175 164 158 155 146 133 125 116 115 115 108 95 78 66 50 38 32 19 4 2 355 348 326 326 322 318 322 326 316 304 297 285 284 276 278 279 277 277 276 265 261
181 159 129 126 136 178 215 183 149 164 173 170 158 147 140 133 129 114 103 97 88 74 57 34 20 14 3 358 352 339 332 334 317 320 328 332 330 325 309 293 283 287 282 283 282 276 281 278 274
196 171 129 130 123 192 227 184 161 173 184 184 175 164 155 150 143 128 115 107 95 76 62 45 27 11 0 349 336 330 339 344 330 329 338 342 339 335 325 306 305 304 292 282 287 290 286 281 278
190 158 129 125 95 246 222 193 181 190 199 202 193 174 168 168 158 144 135 124 112 90 55 37 31 14 4 354 346 348 358 350 344 348 350 349 342 340 333 310 305 304 296 289 283 280 283 273 275
226 114 94 80 55 301 244 226 218 199 206 212 208 188 184 173 154 142 136 134 131 129 81 33 28 11 14 9 357 350 350 338 340 343 352 349 340 338 328 316 310 302 283 278 284 281 283 278 294
48 97 86 74 25 326 296 269 240 214 210 206 205 199 180 163 156 146 147 148 149 143 100 32 20 9 11 20 356 302 303 310 316 328 338 333 332 328 323 324 316 312 300 293 285 287 288 279 265
39 36 63 46 318 256 277 277 225 203 199 199 196 191 183 174 172 161 164 162 160 149 120 38 6 4 9 1 348 334 325 313 325 323 319 318 325 327 328 320 313 312 311 299 289 280 266 273 266
48 23 32 353 315 279 234 287 265 190 186 193 191 189 193 179 171 167 163 162 163 152 122 98 337 348 348 351 343 327 314 306 302 303 300 313 328 332 324 312 307 307 306 302 294 288 269 263 268
46 346 319 291 302 318 233 230 272 191 181 192 183 178 172 170 173 170 162 162 153 138 137 165 265 305 317 329 317 311 307 300 310 321 319 320 325 325 328 321 311 305 305 310 309 306 298 274 261
284 260 243 238 354 273 222 207 265 207 179 164 157 157 162 164 161 153 143 142 143 140 144 161 231 267 280 281 286 289 293 300 311 314 317 318 314 312 327 323 317 313 310 302 298 297 302 292 279
303 351 22 354 230 242 130 210 252 205 104 114 127 135 147 153 153 154 156 160 166 166 168 180 227 246 257 272 273 280 285 286 284 295 303 309 313 320 325 325 311 306 304 305 304 300 299 297 282
329 353 51 269 288 318 242 238 250 104 94 92 109 120 127 146 162 176 182 185 189 186 182 194 221 231 236 251 257 262 270 271 273 280 291 299 301 303 312 315 308 306 309 310 309 309 302 304 296
329 32 26 330 296 279 249 234 244 121 127 131 136 141 160 177 182 189 190 192 191 195 198 205 217 229 229 236 250 253 255 258 271 287 298 299 292 297 311 308 308 311 315 312 315 308 294 304 302
323 340 327 239 310 291 276 237 217 165 151 149 166 181 196 186 182 190 195 197 197 201 203 202 214 227 232 230 239 245 244 245 250 261 275 283 291 297 299 299 299 303 306 309 312 298 283 283 285
176 220 246 272 262 261 297 288 101 135 120 125 173 200 212 196 201 209 211 205 200 197 197 204 215 225 230 230 234 246 248 242 242 243 254 265 281 288 286 290 290 293 296 302 307 303 306 283 272
322 263 220 221 260 229 257 272 79 94 95 79 356 344 288 222 224 222 213 209 206 207 209 209 214 222 227 227 230 238 244 245 244 245 250 255 270 279 281 287 289 292 298 296 287 287 286 276 270